Presure
140 98 167 180 172 153 115 146 119 116 158 140 157 132 138 159 173 177 164 165 174 90 79 170 178 147 125 137 125 127 126 118 124 116 122 120 115 118 113 118 121 118 116 110 120 111 111 105 116
162 106 151 161 186 156 158 185 171 117 143 132 140 171 137 190 206 158 170 189 164 190 101 161 188 181 174 117 168 145 123 131 127 125 117 123 121 121 124 121 119 119 110 117 118 126 131 127 129
111 88 117 177 193 193 103 184 181 129 168 170 160 149 106 110 129 176 162 146 159 219 76 119 170 178 134 216 180 172 170 164 124 131 134 113 118 124 133 133 135 129 133 131 116 123 131 134 132
135 134 94 137 188 190 156 192 120 176 154 187 181 130 190 180 194 173 172 180 99 173 79 200 193 203 167 143 151 213 144 221 190 139 123 129 134 122 122 126 127 126 128 131 133 132 137 138 133
173 167 128 170 198 200 178 182 186 146 122 133 188 185 182 187 192 185 178 184 184 141 126 192 204 197 187 200 188 218 90 230 223 214 227 251 232 179 129 132 136 124 127 135 142 151 145 146 158
186 149 181 182 185 174 174 148 164 153 186 168 192 176 189 195 186 202 219 215 219 196 151 188 151 170 197 198 153 208 149 174 135 216 218 148 210 241 230 232 223 228 226 180 211 212 183 222 218
150 177 182 183 179 139 183 179 171 151 184 183 175 189 202 215 209 199 197 192 203 158 219 199 208 153 213 185 180 210 124 212 209 209 201 202 200 182 114 195 197 198 209 206 204 217 218 217 218
185 181 180 176 179 170 180 204 173 180 185 187 188 180 171 174 75 173 214 205 216 210 99 227 213 216 211 208 208 204 148 138 172 197 193 223 143 183 196 145 194 197 204 213 209 187 202 86 204
174 180 181 123 174 178 178 189 177 192 197 218 194 204 220 162 229 158 219 133 189 203 218 214 199 199 124 205 205 206 207 200 206 82 215 208 200 190 144 145 193 201 165 203 194 201 195 191 187
180 178 179 184 183 185 168 116 191 171 149 103 181 166 205 222 210 213 174 209 174 196 220 211 216 207 174 200 199 192 189 208 209 200 189 185 195 194 158 175 149 151 162 162 109 182 162 193 192
175 187 185 177 176 180 199 180 148 170 201 200 241 169 216 221 217 196 208 218 177 209 215 152 210 214 206 196 199 158 198 206 201 204 192 191 173 167 186 192 185 104 183 162 142 175 197 127 190
171 163 172 177 157 174 172 184 212 200 204 216 156 195 202 216 214 207 186 202 197 202 202 203 213 207 210 210 75 88 196 202 186 198 192 191 192 190 201 198 199 181 179 137 176 150 179 195 158
177 167 171 168 174 186 187 179 192 176 202 182 168 170 183 203 205 230 212 201 197 194 202 207 204 209 207 201 152 204 203 197 198 178 191 189 190 193 190 187 194 186 183 176 178 199 182 193 171
189 190 194 187 183 182 170 196 199 199 182 208 215 208 155 199 189 213 214 220 211 194 193 202 200 206 209 208 205 200 199 197 200 198 131 196 198 195 200 197 198 181 173 130 189 180 168 161 169
181 180 151 180 160 180 187 191 191 189 207 149 200 162 148 194 181 192 191 205 205 214 210 210 189 190 195 207 206 218 216 208 220 212 223 218 214 201 208 205 199 191 185 184 191 187 185 183 197
183 176 171 184 184 191 185 180 195 199 203 195 193 204 160 164 175 184 193 203 184 203 198 222 212 206 201 198 206 213 205 202 169 186 211 223 221 209 211 215 213 203 204 218 195 195 195 144 83
182 190 188 187 186 188 194 193 203 198 192 194 175 199 176 132 194 178 202 183 218 213 185 202 197 213 216 215 199 204 204 206 209 209 204 206 209 215 225 218 213 217 216 210 187 190 183 193 174
190 188 186 192 194 192 194 196 205 199 204 183 199 179 196 170 157 179 183 208 172 232 203 223 202 235 215 201 216 186 229 218 224 219 209 203 205 205 202 207 205 215 207 202 198 187 187 183 175
195 187 185 200 194 204 202 200 175 198 193 193 197 177 188 194 197 182 208 192 184 201 194 221 217 200 216 193 195 206 200 191 199 202 243 248 233 225 219 211 203 198 214 202 202 183 189 157 192
186 196 194 197 202 197 192 183 196 197 186 198 194 188 177 202 200 205 217 215 214 227 214 215 217 208 230 207 189 213 197 175 207 205 192 238 258 256 263 233 218 206 203 190 187 182 180 170 168
197 193 188 200 196 191 197 180 190 197 200 186 182 186 192 204 211 212 196 212 214 222 233 236 239 180 228 184 193 202 192 220 229 211 241 249 292 187 268 280 280 232 188 150 172 107 149 189 187
193 195 186 178 201 201 199 171 194 201 191 205 211 197 216 209 203 211 219 223 181 226 226 219 249 247 260 247 209 209 288 270 282 282 282 281 284 294 308 322 348 343 239 224 186 181 180 197 178
189 188 192 191 195 203 193 189 197 167 188 214 211 207 219 214 219 226 217 232 235 242 233 231 266 264 261 252 245 278 278 285 287 279 288 293 286 314 368 364 311 319 349 329 186 207 178 186 178
205 196 192 192 197 199 183 157 145 164 160 85 199 206 214 213 225 234 232 235 234 235 241 262 261 253 254 254 267 279 284 280 281 287 292 331 251 315 338 339 343 361 365 351 97 242 189 190 190
207 205 199 199 200 198 211 208 178 122 180 209 213 218 221 213 242 230 232 229 225 241 249 256 246 254 253 266 278 276 272 282 279 338 305 298 301 314 315 320 325 333 344 253 266 259 225 187 201
210 166 218 214 213 217 212 217 210 210 218 224 222 248 242 241 236 232 228 225 242 252 248 249 239 255 271 269 153 274 278 275 328 302 279 292 289 289 291 297 295 308 308 214 362 107 246 180 205
208 213 230 232 228 232 230 221 218 225 224 259 256 249 243 236 233 234 235 244 243 245 248 247 249 263 265 263 266 266 265 322 186 282 280 281 276 267 284 282 305 344 123 109 271 363 358 236 263
218 222 238 237 244 235 239 263 280 275 263 255 250 244 242 242 241 238 238 256 243 252 249 246 257 260 186 255 262 260 312 292 232 266 266 289 286 284 293 278 323 453 477 463 344 331 344 224 186
270 269 264 271 271 272 271 267 260 266 269 261 258 257 254 249 243 242 258 249 252 249 250 263 255 254 251 220 253 277 283 275 282 272 251 254 256 294 306 325 291 415 395 416 409 261 320 255 175
263 272 274 267 264 263 270 269 260 257 249 249 252 253 252 258 293 283 270 262 254 257 259 247 250 245 243 254 250 289 275 263 253 269 248 276 285 306 241 268 339 403 91 368 265 332 333 250 104
Wind_Speed
50 47 56 51 55 57 46 56 50 47 59 56 60 53 55 63 72 76 67 64 75 21 17 64 67 61 58 63 59 59 60 53 54 49 55 52 46 49 44 47 48 48 45 43 47 42 42 40 42
45 46 53 52 56 54 59 59 60 49 55 51 56 67 56 64 66 56 66 82 70 80 36 70 80 74 68 54 71 65 58 63 59 56 50 53 51 51 52 50 50 51 46 50 50 53 52 49 49
53 37 46 51 55 57 48 60 61 53 69 70 65 64 53 56 58 70 70 66 66 64 25 39 70 70 60 69 74 73 76 73 59 62 63 47 51 54 59 59 59 58 60 58 50 53 55 55 54
56 58 44 53 56 56 56 61 51 66 60 70 69 60 69 71 69 76 76 73 35 73 26 72 70 67 63 68 69 77 65 77 84 61 59 62 65 53 54 58 60 58 58 60 60 58 61 61 56
58 53 54 57 50 54 62 66 67 59 56 60 71 72 71 71 74 74 77 76 77 59 57 70 67 69 72 68 70 63 23 56 57 63 58 42 53 66 62 62 65 57 58 56 60 56 69 62 55
55 54 57 56 56 63 65 54 64 62 71 70 76 69 74 78 74 79 81 81 81 78 65 70 56 70 71 68 57 64 43 53 64 52 50 61 51 38 39 36 35 29 25 47 32 33 51 29 30
59 58 57 58 62 53 63 66 70 65 71 74 74 76 78 75 81 79 77 77 77 69 72 70 65 54 66 68 68 53 38 43 47 47 47 47 50 58 42 47 45 42 32 32 33 28 30 30 26
57 57 59 60 62 67 67 56 70 70 72 74 76 72 57 61 30 64 72 75 67 69 26 58 65 64 62 61 62 55 61 62 57 52 56 37 66 48 41 61 48 45 37 31 27 48 30 28 28
62 60 61 49 65 67 70 62 72 61 64 52 62 53 55 61 51 55 63 52 59 67 60 59 65 65 34 63 62 59 52 52 49 26 40 39 44 50 60 53 44 41 50 34 38 33 35 39 43
65 63 65 64 65 68 66 48 63 73 60 40 74 60 49 47 49 52 51 57 54 63 57 57 59 65 59 64 62 62 62 56 46 45 56 58 47 45 53 60 62 57 57 59 34 44 50 38 35
64 67 68 68 68 71 59 72 61 76 55 51 44 52 42 43 44 50 50 51 61 57 56 58 60 64 68 67 66 52 64 63 57 51 56 58 59 62 50 52 55 46 52 55 57 43 37 57 37
68 65 68 69 67 72 70 70 55 56 55 54 51 48 49 43 46 49 55 50 52 55 60 61 62 65 66 70 27 36 65 66 62 60 58 60 61 58 52 52 51 59 59 59 51 55 45 40 52
73 71 71 72 74 70 71 71 63 71 51 67 74 71 56 49 48 42 48 51 52 52 54 60 63 65 69 69 59 72 70 67 67 60 65 64 64 63 61 57 54 57 55 62 51 50 44 41 51
74 75 71 71 73 73 63 68 65 61 56 59 53 45 45 53 55 52 49 49 50 54 55 55 56 63 68 72 76 76 76 72 72 70 61 72 70 68 65 63 61 65 64 44 49 53 57 53 51
74 77 65 74 72 75 75 70 64 63 67 56 51 59 60 58 61 58 54 57 56 56 55 57 60 61 61 68 71 71 75 80 78 79 79 79 79 73 73 69 66 66 64 60 53 51 48 47 42
76 78 76 81 79 80 75 68 70 67 65 55 53 57 63 59 62 62 55 61 56 62 58 58 62 62 62 63 66 70 74 76 65 71 73 78 77 76 74 72 68 67 63 55 51 48 42 31 25
74 79 84 82 81 80 77 74 72 65 62 60 65 65 65 63 63 61 57 62 63 60 58 61 61 65 70 71 72 71 71 73 75 79 81 83 79 76 72 69 67 65 58 53 60 51 50 41 54
79 79 79 83 82 81 76 73 72 68 70 60 64 66 66 70 53 64 69 63 57 66 62 65 67 66 72 64 72 64 79 79 82 81 79 80 82 76 68 68 64 65 57 57 59 55 45 39 56
79 80 77 81 79 77 75 73 62 69 63 65 68 71 68 68 70 74 72 75 73 65 66 66 73 69 66 62 64 71 65 64 66 68 84 88 89 89 80 72 68 63 60 62 61 61 49 57 47
81 81 81 83 83 76 72 66 67 69 69 72 70 71 75 77 75 76 79 75 75 76 73 74 70 77 75 73 57 71 66 61 78 75 74 86 88 92 90 82 79 72 63 64 66 63 60 50 42
85 83 82 84 86 76 77 64 75 76 77 72 75 77 77 82 84 83 79 80 81 81 82 80 81 52 82 59 69 79 65 87 84 75 86 82 89 69 94 89 89 83 72 59 73 44 54 60 58
87 90 80 74 88 87 86 63 79 85 79 85 88 82 87 86 85 88 89 88 69 86 85 79 87 82 82 80 82 86 83 77 78 79 79 82 86 89 91 92 88 88 86 87 84 80 77 71 66
85 87 91 90 89 91 81 78 79 71 78 92 93 89 92 89 91 90 91 87 84 84 90 88 86 80 80 79 80 81 77 71 70 75 77 79 79 78 65 64 64 52 84 86 80 77 75 78 74
99 96 93 91 96 88 80 56 57 52 54 9 92 94 96 92 95 90 89 84 85 88 93 86 80 80 79 79 80 73 68 68 67 70 69 54 45 56 53 54 58 57 62 70 30 91 84 89 73
100 103 102 100 103 91 102 97 78 48 80 97 100 102 99 95 89 89 85 86 86 90 85 81 82 79 78 80 69 68 68 62 63 45 45 48 49 46 43 47 52 55 57 78 83 92 91 89 87
102 72 107 111 110 108 106 104 100 99 102 101 100 96 90 86 85 85 86 87 94 85 81 79 80 79 70 69 55 65 58 59 39 38 47 45 46 49 50 52 55 51 58 53 67 45 77 66 91
100 100 102 107 110 111 105 103 102 104 100 87 85 86 85 84 85 85 86 89 84 78 76 77 77 70 65 60 58 59 57 37 27 34 39 46 46 49 54 59 57 61 34 30 52 68 68 87 102
102 103 105 106 107 108 103 92 78 76 77 79 81 84 84 82 84 84 82 81 76 73 73 73 69 62 46 57 55 56 40 35 30 37 40 48 50 46 55 58 70 31 32 47 60 60 64 51 55
88 86 86 88 87 88 82 75 78 73 73 76 78 78 79 79 80 80 79 74 71 68 66 56 59 56 52 53 51 48 39 38 32 32 38 44 43 40 43 21 48 10 16 27 47 52 57 90 62
81 79 80 80 80 82 84 73 75 72 72 73 76 76 78 82 59 60 62 61 58 53 44 50 52 48 51 50 49 33 34 37 35 33 38 35 28 8 38 41 32 5 41 12 22 48 55 54 38
Wind_Direction
267 269 265 262 255 266 262 265 261 260 265 265 267 262 267 265 265 266 268 265 269 249 257 262 269 265 261 262 266 266 267 269 267 269 273 274 275 275 273 275 276 275 273 271 275 270 269 265 273
267 263 271 266 260 260 263 263 264 263 266 268 268 265 264 268 271 270 267 264 267 267 267 267 269 269 265 270 267 266 266 265 267 268 271 270 271 271 272 273 273 273 269 270 273 274 274 273 274
267 280 267 269 270 271 267 264 261 264 266 265 265 265 264 259 265 267 268 267 267 273 279 278 266 268 268 270 268 265 272 270 270 267 267 270 268 269 269 270 270 271 272 271 268 273 274 275 275
266 268 266 271 269 268 267 272 267 261 266 268 267 264 272 266 268 269 269 267 268 265 279 268 266 266 269 261 261 272 262 274 275 271 268 268 267 266 267 268 269 269 271 272 273 275 276 276 277
275 275 268 267 269 268 267 268 269 269 274 271 272 272 271 274 273 268 268 270 268 268 267 269 273 268 266 270 268 279 285 281 280 276 276 278 276 279 268 266 265 268 270 273 274 275 274 277 279
276 270 276 276 278 273 269 270 272 274 274 273 275 271 277 278 277 280 278 276 275 269 268 268 271 266 270 270 269 279 278 273 266 274 274 267 276 277 282 284 285 284 280 272 279 281 276 286 287
273 273 275 276 275 269 277 275 272 270 278 278 275 279 278 277 278 280 279 279 276 271 274 272 273 266 272 264 267 276 276 279 277 274 269 274 276 274 268 277 278 275 284 280 280 286 287 285 286
274 272 274 273 274 272 275 276 274 277 277 278 281 282 276 278 268 277 270 272 273 275 281 272 273 273 273 272 274 269 265 264 267 271 273 258 270 271 271 266 276 278 282 282 284 276 280 268 278
268 270 271 267 270 269 271 276 278 281 282 291 282 278 278 276 273 280 269 279 272 273 272 271 269 269 266 270 271 273 270 266 265 270 260 260 257 257 268 271 277 280 270 276 274 267 266 270 272
270 271 270 270 271 271 271 276 276 278 269 273 284 272 280 272 271 269 273 272 275 272 272 269 265 266 266 270 270 265 262 271 264 261 262 263 259 253 261 263 268 267 269 272 277 272 268 263 266
274 271 272 272 273 271 283 274 274 278 287 290 299 272 286 280 272 270 270 274 271 272 269 272 266 264 264 267 269 275 272 271 268 257 257 261 263 263 252 256 255 263 266 271 270 271 265 272 262
276 274 274 273 276 274 275 275 296 290 292 300 255 282 282 279 279 270 269 267 267 271 270 269 268 267 266 263 284 281 266 265 265 263 258 260 261 260 258 255 255 258 261 266 268 264 266 259 267
275 272 275 277 278 278 279 278 293 277 290 280 279 283 282 277 274 278 272 269 267 265 271 271 270 265 264 265 267 266 264 263 263 263 262 261 262 263 261 257 254 251 252 260 264 263 260 258 266
276 276 278 278 279 279 282 289 293 296 278 294 299 298 262 289 279 287 284 279 270 264 265 269 267 268 266 264 264 265 266 265 263 261 257 262 261 260 261 259 254 253 257 257 252 257 264 262 261
279 280 271 282 276 282 287 291 291 286 294 263 292 268 252 285 285 287 281 283 281 280 274 271 263 265 269 269 269 267 266 266 266 264 264 263 262 262 262 261 256 254 255 257 251 251 254 250 247
280 282 279 282 282 284 285 284 292 293 294 288 285 292 265 263 282 282 277 279 276 277 275 272 271 270 268 266 267 266 266 268 265 269 268 266 264 263 263 260 256 254 256 250 243 236 242 249 258
278 277 279 281 282 282 284 287 288 287 284 289 275 290 282 273 286 272 280 281 276 278 277 276 275 275 271 270 269 269 267 264 263 265 268 269 269 267 263 259 257 254 247 241 243 237 240 236 245
278 278 278 280 279 281 284 285 286 284 289 275 284 271 280 271 279 273 273 282 270 286 277 280 276 273 274 272 271 266 268 268 267 265 265 267 268 265 265 263 258 252 245 238 227 236 227 250 249
278 279 279 278 279 280 280 282 274 285 282 281 283 273 273 276 276 274 287 272 278 284 281 277 272 276 275 269 271 275 269 265 269 270 269 267 267 264 259 257 252 248 243 233 225 233 221 259 234
281 277 277 277 277 280 279 276 284 287 277 285 280 274 272 285 282 284 289 287 284 287 279 276 281 274 277 277 273 277 270 269 277 278 261 273 269 266 263 256 248 245 235 226 229 229 231 230 227
274 277 278 275 276 277 277 278 282 285 283 277 277 279 279 286 288 288 283 286 287 287 287 285 284 280 280 283 284 280 269 278 279 275 277 272 269 267 265 259 255 245 247 237 248 252 238 210 214
275 275 277 275 278 278 279 270 282 284 281 283 284 279 286 285 284 286 287 287 286 285 285 282 287 285 284 280 278 280 283 281 278 275 274 272 271 268 267 267 263 257 238 240 232 234 227 218 227
277 276 275 277 277 276 280 275 279 274 279 285 286 284 286 284 285 285 284 285 285 287 285 287 287 285 284 284 285 285 286 286 280 278 278 273 274 271 267 263 253 254 249 243 255 229 245 222 233
270 273 275 276 277 278 274 273 278 282 281 298 280 282 284 283 285 284 285 287 287 287 289 289 287 286 287 289 289 290 289 286 285 280 278 281 276 272 275 265 262 256 247 243 247 230 240 229 228
269 270 273 275 275 276 276 278 277 263 276 278 279 280 282 283 281 282 285 286 285 288 288 286 286 288 290 291 291 291 290 289 284 282 281 277 279 285 278 270 263 260 255 233 234 234 225 242 220
269 279 270 269 271 272 274 277 277 276 277 278 278 279 279 279 280 281 282 283 284 284 286 285 287 290 291 292 270 292 293 291 288 280 276 277 273 271 274 274 265 268 270 261 245 241 227 234 229
270 270 271 272 271 271 271 273 276 277 277 273 272 274 275 275 277 278 278 281 284 284 283 284 287 290 292 293 294 293 294 287 267 279 279 272 274 278 280 279 286 279 252 254 249 238 234 218 213
269 269 275 275 274 273 275 277 278 274 271 269 269 269 271 273 275 276 278 281 280 281 282 284 288 290 285 295 298 296 289 291 279 274 281 279 285 291 295 289 293 290 261 239 239 234 230 231 245
276 274 273 275 277 278 278 278 277 276 274 273 273 272 272 273 274 276 277 276 278 279 281 284 286 292 292 289 296 294 287 288 293 287 280 281 290 311 293 315 294 261 245 236 218 229 224 217 222
275 276 276 276 276 276 278 276 274 274 271 271 273 274 274 274 276 276 275 276 278 280 281 283 289 293 292 297 297 281 283 291 290 307 290 313 320 307 298 297 34 33 260 217 251 216 222 233 261